Regional Weather Roundup
Issued by NWS

Home | Current Version | Previous Version | Text Only | Print | Product List | Glossary Off
Versions: 1 2 3 4 5 6 7 8 9 10 11 12 13 14 15 16 17 18 19 20 21 22 23 24 25 26 27 28 29 30 31 32 33 34 35 36 37 38 39 40 41 42 43 44 45 46 47 48 49 50

000
ASUS43 KDTX 241210
RWRMI
MICHIGAN HOURLY REGIONAL WEATHER ROUNDUP
NATIONAL WEATHER SERVICE DETROIT/PONTIAC MI
800 AM EDT THU MAY 24 2018

NOTE: "FAIR" INDICATES FEW OR NO CLOUDS BELOW 12,000 FEET WITH NO
SIGNIFICANT WEATHER AND/OR OBSTRUCTION TO VISIBILITY.

MIZ047>049-052>055-059>063-066>070-074>076-081>083-241300-
SOUTHEAST LOWER MICHIGAN

CITY           SKY/WX    TMP DP  RH WIND       PRES   REMARKS
ADRIAN         FAIR      61  57  87 CALM      30.25R
6HR MIN TEMP:  53; 6HR MAX TEMP:  61;

ALMA           FAIR      58  58  99 CALM      30.24S
6HR MIN TEMP:  49; 6HR MAX TEMP:  58;

ANN ARBOR      FAIR      57  55  93 CALM      30.24R
BAD AXE        FAIR      59  56  90 CALM      30.23S
6HR MIN TEMP:  47; 6HR MAX TEMP:  59;

CARO           FAIR      55  52  89 CALM      30.22S
DETROIT CITY   FAIR      64  54  69 CALM      30.23R
6HR MIN TEMP:  55; 6HR MAX TEMP:  64;

DETROIT        FAIR      65  53  65 CALM      30.24R
6HR MIN TEMP:  58; 6HR MAX TEMP:  65;

FLINT          FAIR      58  55  90 CALM      30.24R
6HR MIN TEMP:  48; 6HR MAX TEMP:  58;

GROSSE ILE     FAIR      62  55  77 NW3       30.23R
6HR MIN TEMP:  55; 6HR MAX TEMP:  62;

HILLSDALE      FAIR      59  54  82 CALM      30.25S
HOWELL         FAIR      58  54  84 CALM      30.25R
6HR MIN TEMP:  50; 6HR MAX TEMP:  58;


CITY           SKY/WX    TMP DP  RH WIND       PRES   REMARKS
JACKSON        FAIR      57  55  93 CALM      30.25R
6HR MIN TEMP:  50; 6HR MAX TEMP:  57;

LAMBERTVILLE   FAIR      62  57  83 CALM      30.24R
6HR MIN TEMP:  53; 6HR MAX TEMP:  62;

LANSING        FAIR      59  55  87 CALM      30.25R
6HR MIN TEMP:  51; 6HR MAX TEMP:  59;

LAPEER         FAIR      54  53  97 CALM      30.24R
6HR MIN TEMP:  45; 6HR MAX TEMP:  54;

MASON          FAIR      57  54  88 CALM      30.25S
6HR MIN TEMP:  52; 6HR MAX TEMP:  57;

MONROE         FAIR      61  58  88 CALM      30.23R
6HR MIN TEMP:  52; 6HR MAX TEMP:  61;

MT. CLEMENS    MOSUNNY   59  59 100 CALM      30.22R
6HR MIN TEMP:  51; 6HR MAX TEMP:  60;

PONTIAC        FAIR      60  57  89 CALM      30.23R
6HR MIN TEMP:  53; 6HR MAX TEMP:  60;

PORT HOPE        N/A     65  55  70 W3        30.21R
6HR MIN TEMP:  59; 6HR MAX TEMP:  65;

PORT HURON     FAIR      55  55 100 CALM      30.23R
TRI CITIES     FAIR      62  56  80 W3        30.23R
6HR MIN TEMP:  57; 6HR MAX TEMP:  66;

MIDLAND        FAIR      58  55  92 CALM      30.22S
6HR MIN TEMP:  50; 6HR MAX TEMP:  58;

TROY           FAIR      65  55  69 CALM      30.25R
SAGINAW HB     FAIR      61  54  77 SW3       30.22S
$$
MIZ043>046-050>051-056>058-064>065-071>073-077>080-241300-
SOUTHWEST LOWER MICHIGAN

CITY           SKY/WX    TMP DP  RH WIND       PRES   REMARKS
BATTLE CREEK   FAIR      60  57  89 CALM      30.25R
6HR MIN TEMP:  53; 6HR MAX TEMP:  60;

BENTON HARBOR  FAIR      63  56  78 MISG      30.22R
6HR MIN TEMP:  50; 6HR MAX TEMP:  63;

BIG RAPIDS     FAIR      53  50  90 CALM      30.24R
6HR MIN TEMP:  47; 6HR MAX TEMP:  53;

COLDWATER      FAIR      58  58 100 CALM      30.25R
6HR MIN TEMP:  51; 6HR MAX TEMP:  58;

FREMONT        FAIR      58  54  86 CALM      30.23R
6HR MIN TEMP:  50; 6HR MAX TEMP:  58;

HOLLAND        FAIR      61  56  83 SE5       30.23R
6HR MIN TEMP:  51; 6HR MAX TEMP:  61;

GRAND RAPIDS   FAIR      58  55  90 S5        30.24R
6HR MIN TEMP:  52; 6HR MAX TEMP:  58;

IONIA          FAIR      60  54  80 CALM      30.24R
6HR MIN TEMP:  51; 6HR MAX TEMP:  60;

KALAMAZOO      FAIR      59  58  96 CALM      30.24R
6HR MIN TEMP:  52; 6HR MAX TEMP:  59;

LUDINGTON      FAIR      54  52  92 CALM      30.21S
6HR MIN TEMP:  44; 6HR MAX TEMP:  54;

MARSHALL       FAIR      57  55  93 CALM      30.25R
6HR MIN TEMP:  48; 6HR MAX TEMP:  57;

MOUNT PLEASANT FAIR      61  56  85 CALM      30.23R
6HR MIN TEMP:  53; 6HR MAX TEMP:  61;

MUSKEGON       FAIR      60  55  83 CALM      30.23R
6HR MIN TEMP:  51; 6HR MAX TEMP:  60;

SOUTH HAVEN    FAIR      63  56  79 S3        30.22S
$$
MIZ016>042-241300-
NORTHERN LOWER MICHIGAN

CITY           SKY/WX    TMP DP  RH WIND       PRES   REMARKS
ALPENA         FAIR      60  55  83 SW5       30.20R
6HR MIN TEMP:  48; 6HR MAX TEMP:  60;

BEAVER ISLAND  FAIR      64  48  56 SW7       30.17S
6HR MIN TEMP:  46; 6HR MAX TEMP:  64;

BELLAIRE       FAIR      53  52  95 CALM      30.21S
6HR MIN TEMP:  45; 6HR MAX TEMP:  53;

CADILLAC       FAIR      53  51  93 CALM      30.23R
CHARLEVOIX     FAIR      57  53  87 E3        30.21S
6HR MIN TEMP:  49; 6HR MAX TEMP:  57;

FRANKFORT      FAIR      60  54  83 CALM      30.20S
GAYLORD        FAIR      57  48  72 SW5       30.21R
6HR MIN TEMP:  50; 6HR MAX TEMP:  57;

GRAYLING       FAIR      53  51  90 CALM      30.22R
6HR MIN TEMP:  42; 6HR MAX TEMP:  53;

HARBOR SPRINGS FAIR      57  55  92 CALM      30.19S
HOUGHTON LAKE  FAIR      56  53  90 CALM      30.23R
6HR MIN TEMP:  46; 6HR MAX TEMP:  60;

MANISTEE       FAIR      54  51  90 E3        30.21R
OSCODA         FAIR      59  51  74 CALM      30.20S
6HR MIN TEMP:  47; 6HR MAX TEMP:  59;

PELLSTON       FAIR      56  51  84 CALM      30.18S
6HR MIN TEMP:  44; 6HR MAX TEMP:  56;

ROGERS CITY    FAIR      64  47  53 W7        30.19R
TRAVERSE CITY  FAIR      61  50  67 CALM      30.19R
6HR MIN TEMP:  50; 6HR MAX TEMP:  61;

$$
MIZ007>008-015-241300-
EASTERN UPPER MICHIGAN

CITY           SKY/WX    TMP DP  RH WIND       PRES   REMARKS
KINROSS        FAIR      56  50  80 SW6       30.16S
6HR MIN TEMP:  50; 6HR MAX TEMP:  56;

MACKINAC ISLAN FAIR      58  49  74 SW7       30.17S
6HR MIN TEMP:  48; 6HR MAX TEMP:  58;

NEWBERRY       FAIR      54  53  94 SW12      30.15R
6HR MIN TEMP:  46; 6HR MAX TEMP:  54;

S. S. MARIE    FAIR      54  51  90 CALM      30.15S
6HR MIN TEMP:  50; 6HR MAX TEMP:  58;

MUNISING         N/A     65  58  78 S3        30.12S
6HR MIN TEMP:  58; 6HR MAX TEMP:  65;

$$
MIZ004>006-011>014-085-241300-
CENTRAL UPPER MICHIGAN

CITY           SKY/WX    TMP DP  RH WIND       PRES   REMARKS
MANISTIQUE     FAIR      49  47  94 S6        30.16S
6HR MIN TEMP:  43; 6HR MAX TEMP:  49;

ESCANABA       FAIR      60  55  83 S3        30.15S
6HR MIN TEMP:  48; 6HR MAX TEMP:  60;

MENOMINEE      FAIR      64  58  80 SW6       30.17S
6HR MIN TEMP:  55; 6HR MAX TEMP:  67;

SAWYER-GWINN   SUNNY     61  54  77 CALM      30.15R
$$
MIZ001>003-009>011-084-241300-
WESTERN UPPER MICHIGAN

CITY           SKY/WX    TMP DP  RH WIND       PRES   REMARKS
IRON MOUNTAIN  FAIR      62  58  86 CALM      30.14S
6HR MIN TEMP:  53; 6HR MAX TEMP:  67;

HOUGHTON       FAIR      71  59  65 CALM      30.10R
6HR MIN TEMP:  52; 6HR MAX TEMP:  71;

COPPER HARBOR    N/A     54  44  69 CALM      30.09S
6HR MIN TEMP:  42; 6HR MAX TEMP:  63;

IRONWOOD       HVY RAIN  65  62  90 SW7       30.13S
6HR MIN TEMP:  54; 6HR MAX TEMP:  66; 6HR PCP:  0.03;

$$

ABBREVIATIONS USED IN REMARKS
   TC - TEMPERATURE IN CELSIUS
  WCI - WIND CHILL INDEX
   HX - HEAT INDEX
  VSB - VISIBILITY




USA.gov is the U.S. government's official web portal to all federal, state and local government web resources and services.